Back to catalog

STARLINK-4122

AliveCommunicationsVLEO
NORAD 53272·PAYLOAD·🇺🇸 United States

Launched Jul 24, 2022 from Cape Canaveral Space Force Station

Loading…

Next Passes (next 24 hours)

TLE

FreshSource: CelesTrak SupGP

Epoch: Sep 14, 2026, 14:16 UTC

1 53272C 22086AG  26257.59493056 -.00031418  00000+0 -92830-3 0  2570
2 53272  53.1596  40.9745 0001249  81.9953 317.6817 15.34404918    13

Track STARLINK-4122 in real time with AllMySat

Download on the App Store